Regional Weather Roundup
Issued by NWS Upton, NY

Current Version | Previous Version | Graphics & Text | Print | Product List | Glossary Off
Versions: 1 2 3 4 5 6 7 8 9 10 11 12 13 14 15 16 17 18 19 20 21 22 23 24 25 26 27

000
ASUS41 KOKX 192209
RWROKX

Regional Weather Roundup
National Weather Service New York NY
500 PM EST FRI JAN 19 2018

Note: "FAIR" indicates few or no clouds below 12,000 feet with no
significant weather and/or obstructions to visibility.

NYZ071-072-176-178-NJZ106-104-192300-
New York City Metro Area

CITY           SKY/WX    TMP DP  RH WIND       PRES   REMARKS
Central Park   FAIR      37  17  44 VRB6      30.00S WCI  32
Bronx Bot Gard   N/A     36  18  48 SW5       29.98F WCI  32
Bronx Lehman C   N/A     37  18  44 SW7         N/A  WCI  32
LaGuardia Arpt MOCLDY    38  17  42 SW8       29.98S WCI  32
Queens College   N/A     37  19  48 SW7         N/A  WCI  32
Kennedy Intl   MOCLDY    34  19  54 SW9       30.00S WCI  27
Breezy Point     N/A     36 N/A N/A W7          N/A  WCI  30
Brooklyn Coll    N/A     39  18  41 SW8         N/A  WCI  34
Staten Island    N/A     37  18  44 W8          N/A  WCI  31
Newark/Liberty MOCLDY    37  17  44 SW12      29.99S WCI  29
Teterboro      FAIR      40  18  41 VRB7      29.98R
$$

NYZ177-179-078>081-192300-
Long Island New York

CITY           SKY/WX    TMP DP  RH WIND       PRES   REMARKS
Jones Beach      N/A     36 N/A N/A W9          N/A  WCI  29
Wantagh          N/A     36  18  48 W7          N/A  WCI  30
Matinecock Pt    N/A     36 N/A N/A SW3         N/A
Farmingdale    FAIR      35  17  47 W7        29.99R WCI  29
MacArthur/ISP  MOCLDY    34  17  50 SW5       29.99R WCI  30
Shirley        FAIR      32  20  61 W5        30.00R WCI  27
Mt Sinai Harb    N/A    N/A N/A N/A MISG        N/A
Westhampton    FAIR      30  18  60 W5        30.01R WCI  25
East Hampton   FAIR      31  17  56 NW6       29.99R WCI  26
Southold         N/A     32  23  69 W5          N/A  WCI  27
Montauk          N/A     34  21  59 W10G18    29.99R WCI  26
$$

NYZ052-065-067-192300-
Hudson Valley

CITY           SKY/WX    TMP DP  RH WIND       PRES   REMARKS
White Plains   FAIR      32  17  54 CALM      29.96R
Larchmont Harb   N/A     34 N/A N/A S5          N/A  WCI  30
Croton On Huds   N/A     34 N/A N/A SE2         N/A
Somers           N/A     32  18  55 S3          N/A
Brewster         N/A     30  18  59 CALM        N/A
Newburgh       PTCLDY    32  19  59 CALM      29.95S
Montgomery     FAIR      27  16  63 CALM      29.93S
Otisville        N/A     32  18  55 S2          N/A
Warwick          N/A     28  19  69 SE2         N/A
Suffern          N/A     32  18  55 S1          N/A
Poughkeepsie   FAIR      33  16  49 S6        29.95S WCI  28
Albany         MOCLDY    29  17  61 S3        29.94F
$$

NJZ001-105-106-008-010-013-015-019>022-104-192300-
New Jersey

CITY           SKY/WX    TMP DP  RH WIND       PRES   REMARKS
Newark/Liberty MOCLDY    37  17  44 SW12      29.99S WCI  29
Teterboro      FAIR      40  18  41 VRB7      29.98R
Caldwell       FAIR      35  17  47 SW5       29.98R WCI  31
Somerville     FAIR      37  19  48 VRB3      29.98R
Linden         FAIR      38  16  40 CALM      30.00S
Perth Amboy      N/A     37 N/A N/A W6          N/A  WCI  33
Sussex         FAIR      34  19  54 SW3       29.94S
Andover          N/A     33  18  53 S3        29.95R
Trenton        FAIR      41  19  41 SW7       29.99S
Millville      FAIR      42  19  39 SW3       30.03F
Atlantic City  FAIR      44  17  33 W7        30.03R
Wrightstown    FAIR      40  20  45 W6        29.98S
Toms River     FAIR      41  18  39 SW5       30.02R
Belmar         FAIR      40  17  39 SW9         N/A  WCI  34
$$

PAZ047>061-062-071-192300-
Eastern Pennsylvania

CITY           SKY/WX    TMP DP  RH WIND       PRES   REMARKS
Philadelphia   FAIR      43  19  38 SW8       30.02S
Allentown      FAIR      36  20  52 SW9       29.98S WCI  29
Scranton       FAIR      36  18  48 SW9       29.93S WCI  29
$$

CTZ002-004>006-009-010-012-RIZ004-006-007-MAZ004-011-015-192300-
Southern New England

 In CT

CITY           SKY/WX    TMP DP  RH WIND       PRES   REMARKS
Bradley Intl   MOCLDY    32  20  61 W5        29.95S WCI  27
Hartford       FAIR      33  18  53 S3        29.96S
Danbury        FAIR      28  18  66 CALM      29.97R
Wtrbury/Oxford FAIR      29  17  61 VRB3      29.95R
Norwalk Harbor   N/A     32 N/A N/A SW8         N/A  WCI  25
Bridgeport     FAIR      34  22  61 SW8       29.99R WCI  27
Meriden        FAIR      31  17  56 S3        29.97R
New Haven      FAIR      34  20  56 W3        29.98R
Chester        FAIR      32  18  55 SW5       29.96R WCI  27
Groton         FAIR      32  20  61 W10       29.97R WCI  24
Willimantic    FAIR      34  17  50 CALM      29.95S

 In RI

CITY           SKY/WX    TMP DP  RH WIND       PRES   REMARKS
Providence     MOCLDY    34  19  54 W6        29.97R WCI  29
Block Island   FAIR      31  22  69 W12G21    29.98R WCI  22
Westerly       FAIR      33  23  66 W8        29.98R WCI  26

In MA

CITY           SKY/WX    TMP DP  RH WIND       PRES   REMARKS
Boston         CLOUDY    33  21  61 VRB5      29.95R WCI  29
Worcester      CLOUDY    28  16  60 W7        29.90R WCI  21
Westfield      MOCLDY    33  21  61 W6        29.93S WCI  28
Provincetown   FAIR      29  22  75 CALM      29.96R
Nantucket      FAIR      31  24  75 W7        29.96S WCI  24
$$

ANZ330-335-338-340-345-350-353-355-192300-
Coastal Marine Observations


STATION/POSITION TIME  SKY/WX   TEMP    WIND        PRES    VSBY  WAVE
                                AIR SEA DIR/SP/G                  HT/PER
                 (UTC)          (F)     (DEG/KT/KT) (MB)    (MI)  (FT/S)
NY Harb Entrance 2150            40 41  270/  8/ 10 1015.7          2/ 7
20 S Fire Island 2150            40 42  260/  8/ 10 1016.2          3/ 4
15 E Barnegat Li 2130               43                N/A           2/10
Hudson Canyon    2150            44 48  260/ 17/ 19 1016.0          5/ 5
Kings Point      2130            36 32  260/  4/  5 1016.3
Execution Rocks  NOT AVBL
Western LI Sound NOT AVBL
Central LI Sound 2130            34     240/ 14/ 16   N/A           3
Robbins Reef     2130            38     250/ 11/ 15 1016.1
$$


>>>>>>>>>>>>>>>>>>>>>>>>>>>> KEY <<<<<<<<<<<<<<<<<<<<<<<<<<<
>                                                          <
>     SKY/WX - Sky Condition/Present Weather               <
>     TMP    - Temperature in Fahrenheit                   <
>     DP     - Dew Point in Fahrenheit                     <
>     RH     - Relative Humidity in Percent                <
>     WIND   - Direction (from) and Speed in MPH           <
>     PRES   - Mean Sea Level Pressure (inches of Hg)      <
>     WCI    - Wind Chill Index                            <
>     VSB    - Visibility in Miles                         <
>     HX     - Heat Index                                  <
>     TC     - Temperature in Celsius                      <
>     VRB    - Varibale Wind Direction                     <
>                                                          <
>>>>>>>>>>>>>>>>>>>>>>>>>>>> KEY <<<<<<<<<<<<<<<<<<<<<<<<<<<




USA.gov is the U.S. government's official web portal to all federal, state and local government web resources and services.